www.pogodaiklimat.ru

Погода и климат >> Архив погоды >> Канада >> Нунавут >> Холл Бич


ПОГОДА в Холл Бич

  • Прогноз погоды в Холл Бич
  • Монитор погоды в Холл Бич

АРХИВ ПОГОДЫ в Холл Бич

Время (UTC), дата Ветер
(напр.,м/с)
 
Видим.   Явления Облачность Т
(С)
Тd
(С)
f
(%)
Тe
(С)
Тes
(С)
Комфортность P
(гПа)
Po
(гПа)
Тmin
(С)
Tmax
(С)
R
(мм)
R24
(мм)
S
(см)
06 19.03 З 10 н/о н/о -33.0 -36.0 74 -51 -51 опасность
обморожения
1005.1 1005.1 -34.9 -28.1 18
09 19.03 З 9 н/о н/о -33.6 -36.7 73 -51 -51 опасность
обморожения
1005.6 1005.6
12 19.03 СЗ 8 н/о н/о -34.3 -37.5 73 -51 -51 опасность
обморожения
1006.7 1006.7 -34.7 -28.1 12
15 19.03 З 8 н/о н/о -32.4 -35.4 74 -48 -48 опасность
обморожения
1006.9 1006.9
18 19.03 СЗ 7 н/о н/о -29.4 -32.0 78 -44 -44 опасность
обморожения
1007.4 1007.4 -34.7 -29.4
21 19.03 З 12 н/о н/о -28.3 -30.7 80 -46 -46 опасность
обморожения
1008.2 1008.2
00 20.03 З 11 н/о н/о -28.6 -31.1 79 -45 -45 опасность
обморожения
1008.3 1008.3 -34.7 -28.2
03 20.03 З 8 н/о н/о -28.8 -31.3 79 -44 -44 опасность
обморожения
1007.6 1007.6
06 20.03 СЗ 7 н/о н/о -26.8 -29.1 81 -40 -40 опасность
обморожения
1006.8 1006.8 -34.7 -26.6 20
09 20.03 З 8 н/о н/о -24.9 -26.9 83 -39 -39 опасность
обморожения
1006.4 1006.3
12 20.03 СЗ 8 н/о н/о -24.5 -26.6 83 -38 -38 опасность
обморожения
1004.7 1004.6 -29.2 -26.6 13
15 20.03 З 5 н/о н/о -24.5 -26.6 83 -35 -35 опасность
обморожения
1003.3 1003.2
18 20.03 З 4 н/о н/о -23.4 -25.3 84 -33 -33 опасность
обморожения
1002.1 1002.0 -29.4 -23.4
21 20.03 СЗ 3 н/о н/о -23.1 -25.0 84 -31 -31 опасность
обморожения
1001.3 1001.2
00 21.03 СЗ 6 н/о н/о -28.3 -30.7 80 -41 -41 опасность
обморожения
1000.7 1000.6 -28.3 -22.9
03 21.03 СЗ 6 н/о н/о -31.6 -34.3 77 -45 -45 опасность
обморожения
1000.6 1000.6
06 21.03 СЗ 6 н/о н/о -33.3 -36.3 74 -48 -48 опасность
обморожения
1000.6 1000.6 -33.8 -22.9 11
09 21.03 З 5 н/о н/о -33.7 -36.7 74 -47 -47 опасность
обморожения
1000.9 1000.9
12 21.03 З 5 н/о н/о -32.9 -35.9 74 -46 -46 опасность
обморожения
1000.7 1000.7 -34.6 -22.9 13
15 21.03 СЗ 5 н/о н/о -31.2 -34.0 76 -44 -44 опасность
обморожения
1001.6 1001.6
18 21.03 СЗ 8 н/о н/о -29.2 -31.8 78 -44 -44 опасность
обморожения
1003.1 1003.1 -34.6 -29.2
21 21.03 СЗ 11 н/о н/о -29.9 -32.5 78 -47 -47 опасность
обморожения
1005.9 1005.9
00 22.03 СЗ 8 н/о н/о -30.3 -33.0 77 -46 -46 опасность
обморожения
1008.4 1008.4 -34.6 -29.2
03 22.03 СЗ 5 н/о н/о -33.5 -36.6 73 -47 -47 опасность
обморожения
1009.9 1009.9
06 22.03 З 7 н/о н/о -33.4 -36.5 74 -49 -49 опасность
обморожения
1009.6 1009.6 -34.6 -29.2 22
09 22.03 З 5 н/о н/о -33.7 -36.8 73 -47 -47 опасность
обморожения
1008.4 1008.4
12 22.03 ЮЗ 4 н/о н/о -29.1 -31.6 79 -40 -40 опасность
обморожения
1006.1 1006.1 -34.4 -29.2 13
15 22.03 ЮЗ 5 н/о н/о -26.1 -28.3 82 -37 -37 опасность
обморожения
1003.0 1003.0
18 22.03 З 3 н/о н/о -23.7 -25.7 84 -31 -31 опасность
обморожения
1001.1 1001.1 -34.4 -23.6
21 22.03 ЮЗ 2 н/о н/о -24.2 -26.2 83 -31 -31 опасность
обморожения
999.2 999.2
00 23.03 З 4 н/о н/о -28.6 -31.1 79 -39 -39 опасность
обморожения
997.5 997.5 -34.4 -23.2
03 23.03 СЗ 7 н/о н/о -30.8 -33.5 77 -46 -46 опасность
обморожения
997.1 997.1
06 23.03 СЗ 8 н/о н/о -31.5 -34.3 76 -48 -48 опасность
обморожения
997.5 997.4 -34.4 -23.2 5
09 23.03 СЗ 10 н/о н/о -32.6 -35.5 75 -50 -50 опасность
обморожения
997.3 997.3
12 23.03 СВ 13 н/о н/о -22.1 -23.9 85 -38 -38 опасность
обморожения
998.9 998.8 -34.5 -23.2 13
15 23.03 С 12 н/о н/о -22.6 -24.6 84 -38 -38 опасность
обморожения
1002.4 1002.3
18 23.03 С 13 н/о н/о -22.6 -24.6 84 -39 -39 опасность
обморожения
1004.4 1004.3 -34.5 -21.9
21 23.03 н/о {осадки} н/о -22.3 -24.3 84 1005.7 1005.6 6
00 24.03 С 15 н/о {осадки} н/о -23.4 -25.6 82 -41 -41 опасность
обморожения
1006.4 1006.3 -34.5 -22.0 6
03 24.03 С 15 н/о {осадки} н/о -24.1 -26.2 83 -41 -41 опасность
обморожения
1005.9 1005.8 0.2
06 24.03 С 18 н/о {осадки} н/о -23.6 -25.6 84 -42 -42 опасность
обморожения
1005.9 1005.8 -34.5 -21.9 1 6
09 24.03 н/о н/о -22.9 -24.8 84 1005.6 1005.5 0.5
12 24.03 н/о {осадки} н/о -22.6 -24.5 84 1005.5 1005.4 -24.4 -21.9 0.7 10
15 24.03 С 16 н/о н/о -22.0 -23.9 84 -39 -39 опасность
обморожения
1005.0 1004.9 0.7
18 24.03 С 17 н/о {осадки} н/о -21.3 -23.1 85 -39 -39 опасность
обморожения
1003.2 1003.1 -24.4 -21.2 0.7
21 24.03 С 16 н/о н/о -20.3 -22.0 86 -37 -37 опасность
обморожения
1004.0 1003.9
00 25.03 СЗ 13 н/о н/о -23.3 -25.3 84 -39 -39 опасность
обморожения
1005.8 1005.7 -23.7 -20.0
03 25.03 СЗ 13 н/о н/о -25.0 -27.4 80 -42 -42 опасность
обморожения
1006.5 1006.4
06 25.03 СЗ 13 н/о н/о -26.4 -28.9 79 -44 -44 опасность
обморожения
1005.6 1005.5 -26.5 -20.0 19
09 25.03 СЗ 12 н/о н/о -26.4 -28.8 80 -43 -43 опасность
обморожения
1005.2 1005.1
12 25.03 СЗ 11 н/о н/о -26.8 -29.2 80 -43 -43 опасность
обморожения
1004.4 1004.3 -27.8 -20.0 10
15 25.03 СЗ 11 н/о н/о -25.2 -27.5 81 -41 -41 опасность
обморожения
1003.4 1003.3
18 25.03 СЗ 11 н/о н/о -22.7 -24.9 82 -38 -38 опасность
обморожения
1003.0 1002.9 -27.8 -22.6
21 25.03 СЗ 10 н/о н/о -21.5 -23.9 81 -35 -35 опасность
обморожения
1003.9 1003.8
00 26.03 З 6 н/о н/о -25.2 -27.7 80 -38 -38 опасность
обморожения
1004.7 1004.6 -27.8 -21.5
03 26.03 СЗ 7 н/о {осадки} н/о -27.1 -29.6 79 -41 -41 опасность
обморожения
1004.5 1004.4 0.2

 

Местоположение метеостанции Холл Бич (Нунавут, Канада): широта 68.78 долгота -81.25 высота над уровнем моря 8 м.

В архиве по умолчанию представлена погода в Холл Бич за последнюю неделю. Архивные данные за месяц целиком и за предыдущие месяцы, начиная с января 2011 года, Вы можете получить, выбрав интересующий диапазон дат из раскрывающегося списка и нажав кнопку "Ввод!".


*Определитесь, кто Вы:
робот инопланетянин человек

Внимание! Время в таблицах - всемирное. Для получения местного времени необходимо прибавить поправку, которая равна -5 ч.

Смотрите также архив погоды в соседних городах и на ближайших метеорологических станциях:

Погода на Острове Роули (Нунавут, Канада) (95 км)
Погода в Лонгстафф-Блаффе (Нунавут, Канада) (246 км)
Погода в Кам Фор (Нунавут, Канада) (345 км)
Погода в Кугааруке (Нунавут, Канада) (347 км)
Погода в Делавер-Лейксе (Нунавут, Канада) (407 км)
Погода в Понд-Инлете (Нунавут, Канада) (450 км)
Погода в Понд-Инлете (Нунавут, Канада) (452 км)
Погода в Вейджер Бэй (Нунавут, Канада) (476 км)
Погода в Арктик Бей (Нунавут, Канада) (489 км)
Погода в Шеперд-Бее (Нунавут, Канада) (489 км)

Пояснения к столбцам:

Ветер - указаны скорость ветра в м/с - средняя за 10 мин, порывы в срок и между сроками (в фигурных скобках) и направление, откуда дует ветер: С - северный, СВ - северо-восточный, В - восточный, ЮВ - юго-восточный, Ю - южный, ЮЗ - юго-западный, З - западный, СЗ - северо-западный.
Видимость - горизонтальная дальность видимости в метрах или километрах. При видимости от 1 до 10 км при отсутствии осадков обычно наблюдается дымка, при ухудшении видимости до 1 км и менее - туман. В сухую погоду видимость может ухудшаться дымом, пылью или мглою.
Явления - указаны атмосферные явления, наблюдавшиеся в срок или в последний час перед сроком; фигурными скобками обозначены явления, наблюдавшиеся между сроками (за 1-3 часа до срока); квадратными скобками обозначены град или гололедные отложения с указанием их диаметра в мм.
Облачность - указаны через наклонную черту общая и нижняя облачность в баллах и высота нижней границы облаков в метрах; квадратными скобками обозначены формы облаков: Ci - перистые, Cs - перисто-слоистые, Cc - перисто-кучевые, Ac - высококучевые, As - высокослоистые, Sc - слоисто-кучевые, Ns - слоисто-дождевые, Cu - кучевые, Cb - кучево-дождевые. Подробнее классификацию облаков см. в Атласе облаков (PDF).
T - Температура воздуха - температура, измеренная на высоте 2 м над землей.
Td - Температура точки росы - температура, при понижении до которой содержащийся в воздухе водяной пар достигнет насыщения.
f - Относительная влажность воздуха - влажноcть воздуха, измеренная на высоте 2 м над землей.
Te - Эффективная температура - температура, которую ощущает одетый по сезону человек в тени. Характеристика душности погоды. При расчете учитывается влияние влажности воздуха и скорости ветра на теплоощущения человека.
Tes - Эффективная температура на солнце - температура, которую ощущает человек, с поправкой на солнечный нагрев. Характеристика знойности погоды. Зависит от высоты солнца над горизонтом, облачности и скорости ветра. Ночью, в пасмурную погоду, а также при ветре 12 м/с и более поправка равна нулю.
P - Атмосферное давление - приведенное к уровню моря атмосферное давление.
Po - Атмосферное давление - измеренное на уровне метеостанции атмосферное давление.
Tmin - Минимальная температура - минимум температуры воздуха на высоте 2 м над землей.
Tmax - Максимальная температура - максимум температуры воздуха на высоте 2 м над землей.
R - Количество осадков - Количество выпавших осадков за период времени, мм. При наведении курсора мыши на число - период времени, за который выпало указанное количество осадков.
R24 - Количество осадков - Количество выпавших осадков за 24 часа, мм.
S - Снежный покров - Высота снежного покрова, см. При наведении курсора мыши на число - состояние снежного покрова и степень покрытия местности в баллах.